User: anonymous   Login
Location: Unspecified
(0.0000°N, 0.0000°E)
Time: 21:32:00
(UTC+00:00)
Language:

RISAT 1 - Orbit

View from above orbital plane
View from above orbital plane
View from above satellite
View from above satellite

Ground track
Ground track

The orbit data is extracted from the following two-line orbital elements,

1 38248U 12017A   15030.47757646  .00001259  00000-0  83735-4 0  1046
2 38248 097.5625 039.3778 0004303 127.9675 032.3609 15.08947125152233
Epoch (UTC): 30 January 2015 11:27:42
Eccentricity: 0.0004303
inclination: 97.5625°
perigee height: 536 km
apogee height: 542 km
right ascension of ascending node: 39.3778°
argument of perigee: 127.9675°
revolutions per day: 15.08947125
mean anomaly at epoch: 32.3609°
orbit number at epoch: 15223

The dashed part of the orbit path shows where the satellite is in the earth's shadow,  

DLR